Вернуться в каталог

WILDFIRE 10

АктивенНаукаPO
NORAD 57766·PAYLOAD·🇺🇸 United States

Запущен Sep 2, 2023 с Vandenberg Space Force Base

Loading…

Ближайшие Пролёты (ближайшие 24 часа)

TLE

СвежийSource: Space-Track

Эпоха: Sep 13, 2026, 13:47 UTC

1 57766U 23133K   26256.57460762  .00000062  00000-0  44568-4 0  9990
2 57766  80.9996 282.6250 0007515 122.0371 238.1516 13.85637649153280

Отслеживайте WILDFIRE 10 в реальном времени с AllMySat

Download on the App Store